User: anonymous
Location: Goheenville
(40.9070°N, 79.3720°W)
Time: 17:55:36
(UTC-04:00)
Language:

Cosmos 1727 Rocket - Orbit

View from above orbital plane
View from above orbital plane
View from above satellite
View from above satellite

Ground track
Ground track

The orbit data is extracted from the following two-line orbital elements,

1 16511U 86008B   14273.44203307  .00000017  00000-0  12501-5 0  5949
2 16511 082.9447 234.6091 0024793 167.0013 342.4938 13.75769321440047
Epoch (UTC): 30 September 2014 10:36:31
Eccentricity: 0.0024793
inclination: 82.9447°
perigee height: 960 km
apogee height: 997 km
right ascension of ascending node: 234.6091°
argument of perigee: 167.0013°
revolutions per day: 13.75769321
mean anomaly at epoch: 342.4938°
orbit number at epoch: 44004

The dashed part of the orbit path shows where the satellite is in the earth's shadow,  

DLR